This is the latest recevied weather packets stored in our database for station/object NW5W-12. If no packets are shown the sender has not sent any weather packets the latest 1 day(s).
| Time | Temp. | Humidity | Pressure | Rain* | Wind** | Luminosity | Snow |
|---|---|---|---|---|---|---|---|
| 1777999842 | 6.11° C | 79% | 1013 hPa | 0.51 mm | 1.79 m/s, 172° | - | - |
| 1777999542 | 6.11° C | 79% | 1012.9 hPa | 0.51 mm | 2.68 m/s, 173° | - | - |
| 1777999242 | 5.56° C | 79% | 1012.9 hPa | 0.51 mm | 2.68 m/s, 160° | - | - |
| 1777998942 | 5.56° C | 78% | 1012.8 hPa | 0.51 mm | 1.79 m/s, 182° | - | - |
| 1777998642 | 5.56° C | 80% | 1012.8 hPa | 0.51 mm | 2.68 m/s, 161° | - | - |
| 1777998342 | 5.56° C | 80% | 1012.8 hPa | 0.51 mm | 3.58 m/s, 157° | - | - |
| 1777998042 | 5.56° C | 81% | 1012.8 hPa | 0.51 mm | 1.79 m/s, 175° | - | - |
| 1777997742 | 5° C | 81% | 1012.9 hPa | 0.51 mm | 3.13 m/s, 151° | - | - |
| 1777997442 | 5° C | 81% | 1012.8 hPa | 0.51 mm | 2.68 m/s, 171° | - | - |
| 1777997142 | 5° C | 81% | 1012.7 hPa | 0.51 mm | 3.58 m/s, 165° | - | - |
| 1777996842 | 5° C | 81% | 1012.7 hPa | 0.51 mm | 2.68 m/s, 161° | - | - |
| 1777996542 | 5° C | 82% | 1012.7 hPa | 0.51 mm | 3.58 m/s, 145° | - | - |
| 1777996242 | 5° C | 82% | 1012.6 hPa | 0.51 mm | 3.58 m/s, 179° | - | - |
| 1777995942 | 5° C | 81% | 1012.6 hPa | 0.51 mm | 3.13 m/s, 157° | - | - |
| 1777995642 | 5.56° C | 81% | 1012.5 hPa | 0.51 mm | 3.13 m/s, 142° | - | - |
| 1777995342 | 5.56° C | 81% | 1012.5 hPa | 0.51 mm | 3.58 m/s, 177° | - | - |
| 1777995042 | 5.56° C | 81% | 1012.5 hPa | 0.51 mm | 3.58 m/s, 158° | - | - |
| 1777994742 | 5.56° C | 82% | 1012.4 hPa | 0.51 mm | 3.58 m/s, 168° | - | - |
| 1777994442 | 5.56° C | 82% | 1012.5 hPa | 0.51 mm | 3.13 m/s, 178° | - | - |
| 1777994142 | 5.56° C | 80% | 1012.5 hPa | 0.51 mm | 3.13 m/s, 139° | - | - |
| 1777993842 | 5.56° C | 79% | 1012.4 hPa | 0.51 mm | 3.13 m/s, 137° | - | - |
| 1777993542 | 5.56° C | 78% | 1012.5 hPa | 0.51 mm | 2.68 m/s, 150° | - | - |
| 1777993242 | 5° C | 80% | 1012.5 hPa | 0.51 mm | 2.68 m/s, 126° | - | - |
| 1777992942 | 5° C | 81% | 1012.5 hPa | 0.51 mm | 3.58 m/s, 152° | - | - |
| 1777992642 | 5° C | 81% | 1012.5 hPa | 0.51 mm | 3.58 m/s, 133° | - | - |
* Rain since midnight (hover to see other rain measurements)
** Current wind speed in m/s (hover to see current wind gust speed)